ES2JT Weather Reports


Display with metric or nautical units.
time (UTC)temp
F
wind
direction
speed
MPH
gust
MPH
rain 1hr
in
rain 24hr
in
rain mn
in
humidity
%
barometer
mb
20260505223925 40 275 6.0 11.0 0.00 0.05 0.00 94 1004.2
20260505223025 40 274 7.0 8.0 0.00 0.05 0.00 93 1004.0
20260505222126 40 266 7.0 10.0 0.00 0.05 0.00 93 1003.8
20260505221227 40 286 8.0 11.0 0.00 0.05 0.00 93 1003.8
20260505220326 40 280 8.0 11.0 0.00 0.05 0.00 92 1003.7
20260505215425 40 273 8.0 11.0 0.00 0.05 0.00 91 1003.8
20260505214525 40 292 8.0 11.0 0.00 0.05 0.00 90 1003.5
20260505213626 40 259 8.0 10.0 0.00 0.05 0.00 90 1003.7
20260505212941 40 271 8.0 10.0 0.00 0.05 0.00 90 1003.6
20260505211826 40 266 10.0 14.0 0.00 0.05 0.00 90 1003.6
20260505210925 40 277 9.0 11.0 0.00 0.05 0.00 91 1003.4
20260505210025 40 277 9.0 14.0 0.00 0.05 0.00 92 1003.6
20260505205125 40 275 10.0 12.0 0.00 0.05 0.05 93 1003.4
20260505204225 40 300 9.0 11.0 0.00 0.05 0.05 94 1003.3
20260505203325 40 285 8.0 11.0 0.00 0.05 0.05 94 1003.1
20260505202426 40 277 6.0 8.0 0.00 0.05 0.05 94 1003.2
20260505201525 40 260 10.0 12.0 0.00 0.05 0.05 94 1003.1
20260505200625 41 245 10.0 14.0 0.00 0.05 0.05 93 1002.8
20260505195725 41 271 11.0 14.0 0.00 0.05 0.05 92 1002.8
20260505195037 41 273 10.0 12.0 0.00 0.05 0.05 92 1003.0
20260505193926 41 281 12.0 14.0 0.00 0.05 0.05 89 1002.9
20260505193025 41 259 11.0 16.0 0.00 0.05 0.05 87 1003.0
20260505192338 41 280 12.0 17.0 0.00 0.05 0.05 85 1002.7
20260505191227 41 286 13.0 17.0 0.00 0.05 0.05 81 1002.6
20260505190325 42 280 11.0 15.0 0.00 0.05 0.05 79 1002.4
20260505185425 42 269 9.0 13.0 0.00 0.05 0.05 78 1002.5
20260505184526 42 278 10.0 13.0 0.00 0.05 0.05 76 1002.4
20260505183625 42 304 13.0 16.0 0.00 0.05 0.05 75 1002.4
20260505182937 42 298 12.0 16.0 0.00 0.05 0.05 76 1002.1
20260505181825 42 267 11.0 12.0 0.00 0.05 0.05 77 1002.1
20260505180925 42 286 10.0 12.0 0.00 0.05 0.05 77 1001.9
20260505180025 43 285 11.0 14.0 0.00 0.05 0.05 75 1001.9
20260505175337 43 287 12.0 17.0 0.00 0.05 0.05 74 1001.9
20260505174226 44 298 15.0 18.0 0.00 0.05 0.05 73 1001.9
20260505173325 44 281 13.0 18.0 0.00 0.05 0.05 71 1001.8
20260505172425 45 284 14.0 17.0 0.00 0.05 0.05 69 1002.0
20260505171525 45 271 13.0 17.0 0.00 0.05 0.05 70 1001.9
20260505170625 45 255 12.0 15.0 0.00 0.05 0.05 70 1001.8
20260505165725 45 262 15.0 17.0 0.00 0.05 0.05 68 1001.8
20260505165038 46 279 15.0 18.0 0.00 0.05 0.05 68 1001.7
20260505163926 45 275 15.0 22.0 0.00 0.05 0.05 67 1001.8
20260505163238 46 277 16.0 22.0 0.00 0.05 0.05 66 1001.8
20260505162125 46 303 16.0 23.0 0.00 0.05 0.05 65 1002.0
20260505161227 46 287 17.0 25.0 0.00 0.05 0.05 64 1002.0
20260505160326 47 279 17.0 23.0 0.00 0.05 0.05 64 1001.9
20260505152727 46 257 15.0 19.0 0.00 0.05 0.05 63 1001.5
20260505151825 47 290 14.0 20.0 0.00 0.05 0.05 63 1001.4
20260505150925 48 291 15.0 19.0 0.00 0.05 0.05 64 1001.6
20260505124525 49 288 18.0 24.0 0.00 0.05 0.05 66 1001.0
20260505123625 49 311 18.0 23.0 0.00 0.05 0.05 66 1000.8
20260505122941 50 303 18.0 21.0 0.00 0.05 0.05 63 1000.7
20260505121825 51 303 16.0 22.0 0.00 0.05 0.05 61 1000.8
20260505120925 51 327 14.0 21.0 0.00 0.05 0.05 62 1000.6
20260505120025 51 312 15.0 22.0 0.00 0.05 0.05 63 1000.6
20260505115125 51 324 15.0 20.0 0.00 0.05 0.05 64 1000.5
20260505114438 51 315 15.0 23.0 0.00 0.05 0.05 65 1000.4
20260505113326 50 308 17.0 21.0 0.00 0.06 0.05 66 1000.4
20260505112425 50 302 19.0 25.0 0.00 0.07 0.05 66 1000.4
20260505111526 50 313 19.0 24.0 0.00 0.08 0.05 65 1000.1
20260505110625 51 271 18.0 25.0 0.00 0.08 0.05 63 1000.3
20260505102125 52 267 17.0 24.0 0.00 0.14 0.05 63 999.7
20260505101436 51 283 17.0 20.0 0.00 0.15 0.05 64 999.7
20260505100539 51 313 16.0 24.0 0.00 0.15 0.05 62 999.5
20260505095636 52 300 20.0 24.0 0.00 0.15 0.05 61 999.2
20260505094525 53 288 17.0 22.0 0.00 0.17 0.05 58 999.2
20260505093625 53 305 18.0 27.0 0.00 0.17 0.05 58 999.0
20260505092727 53 279 18.0 28.0 0.00 0.17 0.05 58 998.8
20260505091825 53 291 20.0 28.0 0.00 0.17 0.05 59 998.8
20260505090926 53 294 21.0 27.0 0.00 0.18 0.05 60 998.8
20260505090025 53 289 18.0 24.0 0.00 0.18 0.05 59 998.5
20260505085125 54 282 20.0 24.0 0.00 0.18 0.05 58 998.4
20260505084226 53 301 22.0 27.0 0.00 0.18 0.05 59 998.3
20260505083325 53 287 19.0 27.0 0.00 0.18 0.05 59 998.4
20260505082425 53 283 17.0 24.0 0.00 0.18 0.05 60 998.1
20260505081525 52 291 19.0 26.0 0.00 0.18 0.05 60 998.3
20260505080625 53 307 18.0 23.0 0.00 0.18 0.05 61 998.3
20260505075727 53 279 18.0 23.0 0.00 0.18 0.05 61 998.0
20260505074825 53 302 20.0 27.0 0.00 0.18 0.05 60 998.2
20260505073926 53 280 21.0 26.0 0.00 0.18 0.05 59 997.9
20260505073027 53 279 18.0 23.0 0.00 0.18 0.05 57 998.0
20260505072126 54 295 16.0 21.0 0.00 0.18 0.05 55 997.9
20260505071227 54 302 16.0 21.0 0.00 0.18 0.05 55 997.7
20260505070325 55 282 14.0 22.0 0.00 0.18 0.05 55 997.6
20260505065425 55 264 13.0 21.0 0.00 0.18 0.05 55 997.5
20260505064525 54 285 18.0 22.0 0.00 0.18 0.05 58 997.6
20260505063625 54 263 14.0 17.0 0.00 0.18 0.05 57 997.7
20260505061802 55 254 15.0 21.0 0.00 0.18 0.05 57 997.6
20260505060904 55 235 12.0 21.0 0.00 0.18 0.05 58 997.4
20260505060003 54 236 13.0 19.0 0.00 0.18 0.05 60 997.4
20260505055102 54 262 15.0 21.0 0.00 0.18 0.05 59 997.4
20260505054203 55 269 12.0 15.0 0.00 0.18 0.05 61 997.2
20260505053515 55 237 12.0 18.0 0.00 0.18 0.05 62 997.3
20260505052404 54 231 12.0 17.0 0.00 0.18 0.05 68 997.1
20260505051502 53 190 14.0 18.0 0.00 0.18 0.05 68 997.1
20260505050812 52 216 13.0 18.0 0.00 0.18 0.05 70 997.3
20260505041416 47 219 10.0 14.0 0.00 0.18 0.05 91 997.4
20260505040513 46 211 11.0 15.0 0.00 0.18 0.05 90 997.4
20260505035402 47 196 13.0 16.0 0.00 0.18 0.05 92 997.4
20260505034502 48 206 9.0 14.0 0.00 0.18 0.05 94 997.5
20260505033815 47 217 10.0 13.0 0.00 0.18 0.05 95 997.5
20260505032702 46 216 9.0 15.0 0.00 0.18 0.05 97 997.4
20260505032015 46 222 9.0 14.0 0.00 0.18 0.05 97 997.5
20260505030903 46 208 8.0 11.0 0.00 0.18 0.05 97 997.3
20260505030003 45 218 7.0 10.0 0.00 0.18 0.05 97 997.5
20260505025312 45 208 8.0 9.0 0.00 0.18 0.05 97 997.6
20260505024414 44 215 7.0 10.0 0.00 0.18 0.05 98 997.6
20260505023512 45 210 8.0 12.0 0.00 0.18 0.05 97 997.5
20260505022403 45 225 8.0 11.0 0.00 0.18 0.05 97 997.5
20260505021711 45 216 8.0 11.0 0.00 0.18 0.05 97 997.4
20260505020602 45 262 9.0 12.0 0.00 0.18 0.05 97 997.6
20260505015916 45 235 8.0 11.0 0.00 0.18 0.05 97 997.6
20260505014802 45 203 7.0 11.0 0.00 0.18 0.05 97 997.6
20260505013904 45 219 7.0 10.0 0.00 0.18 0.05 97 997.8
20260505013213 46 208 7.0 11.0 0.00 0.18 0.05 96 997.9
20260505012316 46 213 7.0 9.0 0.00 0.18 0.05 96 997.7
20260505011413 46 227 9.0 13.0 0.00 0.18 0.05 96 997.7
20260505010302 46 219 10.0 13.0 0.00 0.18 0.05 96 997.8
20260505005612 46 228 10.0 14.0 0.00 0.18 0.05 95 997.9
20260505004715 46 216 10.0 15.0 0.00 0.18 0.05 95 997.9
20260505003812 46 240 11.0 15.0 0.00 0.18 0.05 96 997.9
20260505002915 46 202 11.0 15.0 0.00 0.18 0.05 96 997.8
20260505001802 46 228 10.0 15.0 0.05 0.18 0.05 97 997.9
20260505001114 46 234 8.0 10.0 0.05 0.18 0.05 97 997.7
20260505000003 46 224 11.0 17.0 0.05 0.18 0.05 97 998.0
20260504235102 46 231 9.0 17.0 0.05 0.18 0.05 97 997.9
20260504234202 46 219 10.0 13.0 0.05 0.18 0.05 97 997.7
20260504233303 46 216 10.0 13.0 0.05 0.18 0.05 98 998.0